TimeEDT,TemperatureF,Dew PointF,Humidity,Sea Level PressureIn,VisibilityMPH,Wind Direction,Wind SpeedMPH,Gust SpeedMPH,PrecipitationIn,Events,Conditions,WindDirDegrees,DateUTC
12:15 AM,62.6,53.6,72,29.90,10.0,SSE,9.2,-,N/A,Rain,Light Rain,160,2013-03-12 04:15:00
12:35 AM,62.6,53.6,72,29.88,10.0,SSE,10.4,-,N/A,Rain,Light Rain,160,2013-03-12 04:35:00
12:55 AM,62.6,53.6,72,29.87,10.0,SSE,9.2,-,N/A,,Light Drizzle,160,2013-03-12 04:55:00
1:15 AM,64.4,53.6,68,29.88,10.0,South,11.5,23.0,N/A,,Light Drizzle,170,2013-03-12 05:15:00
1:35 AM,64.4,53.6,68,29.88,10.0,South,10.4,20.7,N/A,,Scattered Clouds,180,2013-03-12 05:35:00
1:55 AM,62.6,53.6,72,29.88,10.0,South,9.2,20.7,N/A,,Mostly Cloudy,170,2013-03-12 05:55:00
2:15 AM,62.6,55.4,77,29.87,10.0,South,9.2,19.6,N/A,Rain,Light Rain,170,2013-03-12 06:15:00
2:35 AM,62.6,55.4,77,29.86,10.0,South,10.4,19.6,N/A,Rain,Light Rain,180,2013-03-12 06:35:00
2:55 AM,62.6,55.4,77,29.86,10.0,South,9.2,19.6,N/A,Rain,Light Rain,180,2013-03-12 06:55:00
3:15 AM,62.6,55.4,77,29.85,10.0,South,9.2,-,N/A,,Drizzle,170,2013-03-12 07:15:00
3:35 AM,60.8,55.4,82,29.84,10.0,South,8.1,-,N/A,,Light Drizzle,180,2013-03-12 07:35:00
3:55 AM,60.8,24.8,25,29.83,10.0,South,6.9,-,N/A,Rain,Rain,170,2013-03-12 07:55:00
4:15 AM,60.8,53.6,77,29.83,10.0,South,8.1,-,N/A,Rain,Rain,180,2013-03-12 08:15:00
4:35 AM,60.8,59.0,94,29.83,10.0,South,5.8,-,N/A,Rain,Light Rain,170,2013-03-12 08:35:00
4:55 AM,60.8,60.8,100,29.82,10.0,SSE,6.9,-,0.02,Rain,Rain,150,2013-03-12 08:55:00
5:15 AM,60.8,60.8,100,29.81,10.0,SSE,4.6,-,0.02,Rain,Rain,160,2013-03-12 09:15:00
5:35 AM,60.8,60.8,100,29.80,10.0,SSE,4.6,-,0.04,Rain,Light Rain,160,2013-03-12 09:35:00
5:55 AM,60.8,60.8,100,29.80,10.0,Calm,Calm,-,0.06,Rain,Light Rain,0,2013-03-12 09:55:00
6:15 AM,59.0,59.0,100,29.79,7.0,SSE,3.5,-,0.05,Rain,Heavy Rain,150,2013-03-12 10:15:00
6:35 AM,59.0,59.0,100,29.78,7.0,SSE,3.5,-,0.13,Rain,Heavy Rain,160,2013-03-12 10:35:00
6:55 AM,60.8,60.8,100,29.77,10.0,SSE,5.8,-,0.18,Rain,Light Rain,160,2013-03-12 10:55:00
7:15 AM,60.8,59.0,94,29.76,10.0,SSE,6.9,-,0.02,Rain,Light Rain,150,2013-03-12 11:15:00
7:35 AM,60.8,57.2,88,29.75,10.0,SSE,8.1,-,0.07,Rain,Rain,150,2013-03-12 11:35:00
7:55 AM,60.8,60.8,100,29.73,7.0,SSE,6.9,-,0.08,Rain,Rain,150,2013-03-12 11:55:00
8:15 AM,60.8,60.8,100,29.72,10.0,SSE,11.5,18.4,N/A,,Light Drizzle,150,2013-03-12 12:15:00
8:35 AM,62.6,50.0,63,29.72,10.0,SSE,15.0,19.6,N/A,Rain,Light Rain,160,2013-03-12 12:35:00
8:55 AM,62.6,62.6,100,29.73,10.0,South,11.5,18.4,0.02,Rain,Light Rain,170,2013-03-12 12:55:00
9:15 AM,60.8,60.8,100,29.73,1.0,NNW,10.4,-,0.40,Rain,Heavy Rain,330,2013-03-12 13:15:00
9:35 AM,59.0,59.0,100,29.73,5.0,NNW,4.6,-,0.64,Rain,Heavy Rain,330,2013-03-12 13:35:00
10:15 AM,60.8,60.8,100,29.74,7.0,NW,3.5,-,0.06,Rain,Rain,310,2013-03-12 14:15:00
10:35 AM,60.8,60.8,100,29.75,10.0,NW,3.5,-,0.14,Rain,Rain,320,2013-03-12 14:35:00
10:55 AM,60.8,60.8,100,29.77,10.0,North,4.6,-,0.16,Rain,Light Rain,360,2013-03-12 14:55:00
11:15 AM,57.2,57.2,100,29.77,10.0,North,11.5,-,N/A,Rain,Light Rain,360,2013-03-12 15:15:00
11:35 AM,55.4,55.4,100,29.78,10.0,North,13.8,-,N/A,,Overcast,350,2013-03-12 15:35:00
11:55 AM,57.2,55.4,94,29.78,10.0,North,12.7,-,N/A,,Overcast,350,2013-03-12 15:55:00
12:15 PM,59.0,55.4,88,29.77,10.0,North,12.7,-,N/A,,Mostly Cloudy,360,2013-03-12 16:15:00
12:35 PM,59.0,53.6,82,29.78,10.0,North,10.4,-,N/A,,Mostly Cloudy,360,2013-03-12 16:35:00
12:55 PM,60.8,53.6,77,29.78,10.0,North,10.4,16.1,N/A,,Overcast,360,2013-03-12 16:55:00
1:15 PM,60.8,53.6,77,29.79,10.0,North,11.5,-,N/A,,Overcast,10,2013-03-12 17:15:00
1:35 PM,60.8,53.6,77,29.79,10.0,North,10.4,-,N/A,,Overcast,360,2013-03-12 17:35:00
1:55 PM,60.8,53.6,77,29.79,10.0,North,13.8,18.4,N/A,,Overcast,10,2013-03-12 17:55:00
2:15 PM,60.8,51.8,72,29.79,10.0,North,13.8,-,N/A,,Overcast,360,2013-03-12 18:15:00
2:35 PM,60.8,51.8,72,29.78,10.0,North,11.5,-,N/A,,Overcast,10,2013-03-12 18:35:00
2:55 PM,60.8,51.8,72,29.78,10.0,North,10.4,-,N/A,,Mostly Cloudy,350,2013-03-12 18:55:00
3:15 PM,62.6,51.8,68,29.78,10.0,NNE,8.1,-,N/A,,Mostly Cloudy,30,2013-03-12 19:15:00
3:35 PM,60.8,42.8,52,29.78,10.0,North,13.8,-,N/A,,Overcast,360,2013-03-12 19:35:00
3:55 PM,62.6,41.0,45,29.79,10.0,North,9.2,-,N/A,,Mostly Cloudy,360,2013-03-12 19:55:00
4:15 PM,62.6,39.2,42,29.79,10.0,NNE,6.9,-,N/A,,Mostly Cloudy,20,2013-03-12 20:15:00
4:35 PM,60.8,39.2,45,29.80,10.0,North,12.7,-,N/A,,Mostly Cloudy,360,2013-03-12 20:35:00
4:55 PM,60.8,37.4,42,29.81,10.0,North,11.5,-,N/A,,Overcast,360,2013-03-12 20:55:00
5:15 PM,60.8,37.4,42,29.81,10.0,North,13.8,17.3,N/A,,Scattered Clouds,350,2013-03-12 21:15:00
5:35 PM,60.8,42.8,52,29.82,10.0,North,15.0,19.6,N/A,,Clear,360,2013-03-12 21:35:00
5:55 PM,57.2,42.8,59,29.83,10.0,North,16.1,21.9,N/A,,Clear,10,2013-03-12 21:55:00
6:15 PM,57.2,41.0,55,29.83,10.0,North,17.3,-,N/A,,Clear,360,2013-03-12 22:15:00
6:35 PM,55.4,41.0,58,29.85,10.0,North,15.0,-,N/A,,Clear,350,2013-03-12 22:35:00
6:55 PM,53.6,39.2,58,29.86,10.0,North,11.5,21.9,N/A,,Clear,10,2013-03-12 22:55:00
7:15 PM,51.8,39.2,62,29.87,10.0,North,10.4,16.1,N/A,,Clear,10,2013-03-12 23:15:00
7:35 PM,51.8,39.2,62,29.88,10.0,North,8.1,-,N/A,,Clear,10,2013-03-12 23:35:00
7:55 PM,50.0,37.4,62,29.89,10.0,North,5.8,-,N/A,,Clear,10,2013-03-12 23:55:00
8:15 PM,50.0,37.4,62,29.90,10.0,NNE,3.5,-,N/A,,Clear,30,2013-03-13 00:15:00
8:35 PM,48.2,37.4,66,29.91,10.0,NNE,5.8,-,N/A,,Clear,20,2013-03-13 00:35:00
8:55 PM,48.2,37.4,66,29.92,10.0,North,8.1,-,N/A,,Clear,360,2013-03-13 00:55:00
9:15 PM,48.2,37.4,66,29.92,10.0,North,11.5,17.3,N/A,,Clear,350,2013-03-13 01:15:00
9:35 PM,48.2,35.6,62,29.93,10.0,North,15.0,-,N/A,,Clear,350,2013-03-13 01:35:00
9:55 PM,46.4,35.6,66,29.94,10.0,North,11.5,-,N/A,,Clear,360,2013-03-13 01:55:00
10:15 PM,46.4,35.6,66,29.94,10.0,North,9.2,-,N/A,,Clear,10,2013-03-13 02:15:00
10:35 PM,46.4,35.6,66,29.95,10.0,North,8.1,-,N/A,,Clear,360,2013-03-13 02:35:00
10:55 PM,44.6,35.6,71,29.96,10.0,NNE,3.5,-,N/A,,Clear,20,2013-03-13 02:55:00
11:15 PM,44.6,35.6,71,29.96,10.0,North,4.6,-,N/A,,Clear,10,2013-03-13 03:15:00
11:35 PM,44.6,35.6,71,29.96,10.0,North,6.9,-,N/A,,Clear,360,2013-03-13 03:35:00
11:55 PM,44.6,35.6,71,29.97,10.0,North,6.9,-,N/A,,Clear,360,2013-03-13 03:55:00